This demonstration page uses our WeatherBlox Daily Observations layout. Learn more.

Left ArrowRight Arrow

41.12389, -100.76542

Hourly Observations for August 9, 2022

Temp ( °F °C ) Dew Point ( °F °C ) Humidity (%) Winds ( mph kmh ) Pressure ( in mb ) Visibility ( mi km ) Precip ( " mm )
12:53 am 00:53 Clear 67 19.4 58 14.4 73 73 SE 5 7 30.07 1018 10 16 0.00 0.00
1:53 am 01:53 Clear 66 18.9 57 13.9 73 73 SSE 7 11 30.05 1018 10 16 0.00 0.00
2:53 am 02:53 Clear 62 16.7 56 13.3 80 80 Calm 30.04 1017 10 16 0.00 0.00
3:53 am 03:53 Clear 60 15.6 56 13.3 86 86 Calm 30.05 1018 10 16 0.00 0.00
4:53 am 04:53 Clear 59 15 56 13.3 90 90 Calm 30.06 1018 10 16 0.00 0.00
5:53 am 05:53 Clear 64 17.8 58 14.4 80 80 SSW 6 9 30.06 1018 10 16 0.00 0.00
6:53 am 06:53 Sunny 62 16.7 57 13.9 84 84 SE 3 6 30.06 1018 10 16 0.00 0.00
7:53 am 07:53 Sunny 66 18.9 58 14.4 75 75 Calm 30.08 1019 10 16 0.00 0.00
8:53 am 08:53 Sunny 71 21.7 60 15.6 68 68 S 6 9 30.08 1019 10 16 0.00 0.00
9:53 am 09:53 Sunny 76 24.4 59 15 56 56 S 7 11 30.08 1019 10 16 0.00 0.00
10:53 am 10:53 Sunny 82 27.8 61 16.1 49 49 S 8 13 30.06 1018 10 16 0.00 0.00
11:53 am 11:53 Sunny 87 30.6 63 17.2 45 45 SSW 10 17 30.05 1018 10 16 0.00 0.00
12:53 pm 12:53 Sunny 91 32.8 64 17.8 41 41 S 8 13 30.04 1017 10 16 0.00 0.00
1:53 pm 13:53 Sunny 94 34.4 65 18.3 39 39 SSE 10 17 30.02 1017 10 16 0.00 0.00
2:53 pm 14:53 Sunny 94 34.4 63 17.2 36 36 SSE 9 15 30.01 1016 10 16 0.00 0.00
3:53 pm 15:53 Sunny 96 35.6 58 14.4 28 28 SSE 6 9 29.99 1016 10 16 0.00 0.00
4:53 pm 16:53 Sunny 96 35.6 57 13.9 27 27 ESE 8 13 29.98 1015 10 16 0.00 0.00
5:53 pm 17:53 Sunny 97 36.1 58 14.4 27 27 SE 8 13 29.96 1015 10 16 0.00 0.00
6:53 pm 18:53 Sunny 94 34.4 59 15 31 31 SE 6 9 29.97 1015 10 16 0.00 0.00
7:53 pm 19:53 Sunny 89 31.7 58 14.4 35 35 SSE 9 15 29.98 1015 10 16 0.00 0.00
8:53 pm 20:53 Clear 84 28.9 57 13.9 40 40 SE 7 11 29.99 1016 10 16 0.00 0.00
9:53 pm 21:53 Clear 76 24.4 59 15 56 56 ESE 9 15 30.03 1017 10 16 0.00 0.00
10:53 pm 22:53 Clear 74 23.3 59 15 60 60 SSE 7 11 30.04 1017 10 16 0.00 0.00
11:53 pm 23:53 Clear 77 25 60 15.6 56 56 SE 7 11 30.05 1018 10 16 0.00 0.00

Powered by AerisWeather